Regional Weather Roundup
Issued by NWS New Orleans/Baton Rouge, LA

Home | Current Version | Previous Version | Text Only | Print | Product List | Glossary Off
Versions: 1 2 3 4 5 6 7 8 9 10 11 12 13 14 15 16 17 18 19 20 21 22 23 24 25 26 27 28 29 30 31 32 33 34 35 36 37 38 39 40 41 42 43 44 45 46 47 48 49 50

582
ASUS44 KLIX 011801
RWRLIX
NEW ORLEANS REGIONAL WEATHER ROUNDUP
NATIONAL WEATHER SERVICE NEW ORLEANS LA
100 PM CDT WED OCT 01 2014

NOTE: "FAIR" INDICATES FEW OR NO CLOUDS BELOW 12,000 FEET WITH NO
      SIGNIFICANT WEATHER AND/OR OBSTRUCTIONS TO VISIBILITY.
      SKY/WX - SKY CONDITION AND SIGNIFICANT WEATHER.
      TMP - AIR TEMPERATURE.     DP    - DEWPOINT TEMPERATURE.
      RH  - RELATIVE HUMIDITY.   PRES  - PRESSURE.
      HI  - HEAT INDEX.          WCI   - WIND CHILL INDEX.

*  THESE STATIONS ARE NOT NWS OR FAA STATIONS AND ARE NOT UNDER
   NWS QUALITY CONTROL.

LAZ038-040-048-061>063-065>067-069-011900-
SOUTHEAST LOUISIANA

CITY           SKY/WX    TMP DP  RH WIND       PRES   REMARKS
N.O. AUDUBON     N/A     82  76  80 MISG        N/A
6HR MIN TEMP:  75; 6HR MAX TEMP:  82; 6HR PCP:  0.13;

N.O. INTL ARPT PTSUNNY   80  72  76 SE8       29.92F
6HR MIN TEMP:  76; 6HR MAX TEMP:  82; 6HR PCP: TRACE;

N.O. LAKEFRONT LGT RAIN  78  73  84 E3        29.93F
6HR MIN TEMP:  76; 6HR MAX TEMP:  82;

N.O. DOWNTOWN*   N/A     79  72  78 CALM      29.94S
6HR MIN TEMP:  75; 6HR MAX TEMP:  81; 6HR PCP:  0.05;

SLIDELL          N/A     82  71  69 VRB5      29.92F
6HR MIN TEMP:  67; 6HR MAX TEMP:  84;

BATON ROUGE    CLOUDY    83  75  77 E9        29.91F
6HR MIN TEMP:  72; 6HR MAX TEMP:  83; 6HR PCP: TRACE;

BOOTHVILLE       N/A     80  76  87 E8        29.94F
6HR MIN TEMP:  77; 6HR MAX TEMP:  82; 6HR PCP:  0.07;

BELLE CHASSE   CLOUDY    79  74  84 SE8       29.93S
6HR MIN TEMP:  72; 6HR MAX TEMP:  82; 6HR PCP:  0.13;

BOGALUSA*        N/A     84  70  62 S3        29.95F
6HR MIN TEMP:  67; 6HR MAX TEMP:  85;

GALLIANO*      NOT AVBL
NEW ROADS*     CLOUDY    82  74  77 SE8       29.90F
6HR MIN TEMP:  73; 6HR MAX TEMP:  82;

GONZALES*      CLOUDY    80  80  99 CALM      29.91F
6HR MIN TEMP:  71; 6HR MAX TEMP:  80; 6HR PCP:  0.06;

HAMMOND*       NOT AVBL
HOUMA*         PTSUNNY  N/A N/A N/A SE7       29.91F
PORT FOURCHON* MOCLDY    81  75  83 SE7       29.96F FOG

$$

MSZ070-080>082-011900-
SOUTHERN MISSISSIPPI

CITY           SKY/WX    TMP DP  RH WIND       PRES   REMARKS
MCCOMB         PTSUNNY   84  70  62 SE12      29.94F
6HR MIN TEMP:  71; 6HR MAX TEMP:  84;

GULFPORT         N/A     81  72  74 SE12      29.94F
6HR MIN TEMP:  71; 6HR MAX TEMP:  83;

BILOXI         NOT AVBL
PASCAGOULA       N/A     84  70  62 VRB7      29.96F
6HR MIN TEMP:  63; 6HR MAX TEMP:  84;

STENNIS ARPT*  PTSUNNY   82  70  65 SE9       29.94F

$$

COASTAL OBSERVATIONS
LAKE AND NEARSHORE STATIONS

STATION/POSITION TIME  TEMP    WIND        PRES    WAVE
                       AIR SEA DIR/SP/G            HT/PER
                 (UTC) (F)     (DEG/KT/KT) (MB)    (FT/S)
PASCAGOULA       1700   82     150/  4/ 10 1014.2
WAVELAND YACHT   1700   79     130/  8/  9 1013.6
GRAND ISLE       1700   80 81  120/  3/  7 1014.5
SOUTHWEST PASS   1700   83 85  140/  5/  8 1014.1
NEW CANAL        1700   78 77  150/  3/  6 1014.0
SHELL BEACH      1700   78 76  110/  9/ 10 1013.6

OFFSHORE STATIONS

STATION/POSITION TIME  TEMP    WIND        PRES    WAVE
                       AIR SEA DIR/SP/G            HT/PER
                 (UTC) (F)     (DEG/KT/KT) (MB)    (FT/S)
64 S DAUPHIN ISL 1718   80 83  120/  6/  8 1014.6    1/ 5

$$




USA.gov is the U.S. government's official web portal to all federal, state and local government web resources and services.